Theta_e
344 344 348 345 345 344 345 344 346 342 346 351 353 345 346 352 349 348 347 343 344 345 346 347 349 347 345 344 344 342 341 340 338 339 338 338 337 338 336 334 336 333
344 344 344 346 345 345 349 349 342 343 344 351 351 354 349 348 344 343 341 344 345 345 347 347 343 342 342 340 341 339 340 337 335 337 336 334 336 336 336 336 337 338
343 344 343 343 344 345 345 351 351 351 347 346 348 347 350 347 344 346 346 348 346 344 346 342 342 340 340 339 340 338 337 335 335 337 336 333 334 333 334 335 333 333
345 343 340 338 344 342 346 347 350 354 347 347 349 346 348 345 345 345 345 345 345 345 343 342 340 341 339 337 337 337 336 335 334 336 334 334 332 333 332 333 332 331
342 341 344 342 342 344 347 345 344 347 348 349 349 349 347 348 344 342 344 343 344 343 340 338 339 338 339 337 335 335 335 334 333 332 331 331 331 331 331 331 329 328
344 340 341 339 342 348 345 345 345 343 344 348 351 346 349 349 346 341 344 346 343 337 336 336 334 336 336 334 335 332 332 331 330 329 328 329 329 329 329 327 326 325
343 343 344 343 341 344 345 346 348 348 349 346 347 348 346 344 347 347 340 345 334 334 332 334 333 333 333 335 332 330 330 330 327 326 324 325 327 326 326 324 321 319
343 343 343 345 345 344 345 344 343 346 347 348 346 346 345 341 340 340 339 335 334 331 332 329 328 328 330 329 328 330 327 327 326 324 323 324 325 322 323 323 319 316
344 342 342 343 344 346 344 343 344 344 344 346 346 346 345 347 346 345 338 335 332 333 329 327 326 326 327 327 327 324 323 325 324 323 323 321 321 320 319 318 317 315
342 342 343 343 343 345 344 344 344 344 344 344 342 344 340 350 348 338 336 336 332 329 328 326 325 325 323 322 323 322 320 320 320 320 318 318 317 316 316 316 315 314
341 341 342 342 343 344 344 345 344 345 346 340 344 345 344 342 346 337 336 332 332 326 325 325 324 322 322 322 323 323 320 319 318 319 318 316 316 316 319 315 314 312
340 341 341 342 343 344 344 344 343 344 344 346 341 341 344 343 338 339 333 328 325 323 323 321 321 321 319 319 319 321 322 322 320 318 318 316 315 315 315 315 313 311
338 339 341 342 343 344 344 343 342 343 342 341 344 343 341 338 337 333 332 327 324 324 321 320 320 321 321 320 318 317 318 319 320 319 318 319 316 315 315 315 313 312
338 340 342 343 344 343 343 343 343 343 342 342 342 342 339 334 331 328 328 324 322 321 321 323 322 320 319 319 318 319 321 320 321 320 320 319 318 315 315 314 314 314
339 339 342 343 343 342 342 343 343 343 343 343 343 341 338 333 329 327 323 320 318 317 315 317 317 315 314 314 319 321 320 320 320 319 321 318 317 317 315 313 312 311
338 339 340 341 341 341 341 343 342 344 342 342 339 337 334 329 327 325 321 318 315 314 314 315 314 314 311 306 307 315 323 318 321 320 319 319 318 317 316 314 312 311
336 338 338 339 340 340 342 342 341 342 342 340 338 334 331 328 326 322 320 317 313 312 312 312 312 309 302 297 298 302 315 323 319 320 321 320 320 317 316 315 314 312
336 336 336 336 339 339 340 340 341 341 340 338 335 331 328 328 325 321 318 316 313 311 311 311 309 304 296 297 297 297 303 318 320 318 318 316 314 315 316 315 314 313
335 335 335 336 338 339 340 341 339 339 338 335 330 328 327 325 321 318 315 314 311 309 309 310 309 301 296 298 297 296 296 312 314 316 317 316 314 313 313 313 314 313
334 333 334 336 338 340 340 338 338 337 337 332 328 327 325 322 319 317 314 313 311 310 310 311 309 301 295 296 296 295 295 301 313 315 316 315 314 315 315 315 314 312
333 333 333 335 337 336 336 337 336 338 332 328 326 325 323 320 318 315 314 313 311 311 310 310 308 296 294 295 295 295 295 305 318 316 316 317 316 315 313 313 312 312
332 331 332 333 332 331 334 336 338 334 329 327 326 324 322 321 318 316 314 313 312 311 309 308 308 292 294 294 295 294 296 312 320 315 315 314 313 312 311 310 309 310
331 331 333 333 332 333 334 336 333 330 327 327 324 323 321 319 317 316 314 311 310 310 309 309 309 298 292 294 294 293 304 313 318 313 313 313 310 310 309 310 309 307
330 331 331 332 332 332 335 335 332 329 327 326 323 321 319 318 316 314 313 312 311 310 310 309 310 304 292 294 294 294 305 314 310 314 313 312 312 311 310 309 309 309
331 330 330 332 331 336 336 333 330 327 326 326 323 322 319 317 315 313 313 313 312 311 312 311 310 306 294 294 294 295 303 309 308 316 310 313 310 310 310 309 308 310
330 332 334 335 335 331 333 331 330 327 325 324 322 319 316 315 315 315 314 313 313 312 313 311 309 309 304 293 295 295 298 307 308 310 309 311 312 310 309 307 304 304
Wind_Speed
3 4 1 1 3 3 2 2 2 3 2 1 1 2 3 2 2 2 3 7 6 4 4 3 2 2 2 3 3 3 3 4 5 4 3 3 4 3 3 2 1 1
3 4 4 3 3 2 1 2 3 3 3 1 2 2 2 2 4 5 5 2 3 4 4 2 4 4 4 3 4 5 3 5 4 3 4 6 3 4 3 2 1 2
4 3 4 4 3 4 2 1 3 2 3 2 3 2 1 2 3 2 2 0 1 3 2 5 4 4 4 5 5 5 4 4 4 4 4 6 5 5 4 3 4 4
3 4 4 6 4 4 3 2 2 1 3 3 1 3 1 2 3 2 0 2 0 3 4 3 3 3 4 6 5 4 5 4 4 5 5 5 5 5 5 4 6 6
4 5 3 3 3 4 3 3 4 3 1 2 2 2 3 3 3 2 2 1 3 2 4 4 3 3 4 4 5 4 5 5 5 5 5 5 6 5 6 6 6 6
4 5 4 5 5 3 3 2 2 3 3 2 1 2 2 1 4 3 1 2 1 4 4 3 4 3 3 4 4 5 5 5 5 5 6 5 5 6 6 7 7 7
5 5 4 3 6 4 4 3 2 2 2 3 2 2 1 1 1 1 3 2 4 4 4 4 4 4 4 3 4 4 5 4 5 6 6 5 5 7 7 8 8 9
6 5 4 3 4 6 4 4 5 3 3 2 2 2 2 3 2 3 3 3 4 5 4 5 5 5 4 4 4 4 4 4 5 5 5 5 5 6 7 7 7 8
6 6 6 5 5 4 5 4 4 4 4 3 2 2 1 1 1 2 3 3 4 4 5 5 5 5 4 4 4 4 4 4 4 5 5 5 6 7 8 7 7 7
7 6 6 6 5 5 5 5 4 4 4 2 3 4 3 1 2 3 2 3 4 4 5 5 5 4 5 5 5 5 5 5 5 5 6 6 7 7 7 7 8 7
8 7 7 7 6 6 5 6 4 4 3 4 3 3 2 3 2 4 3 3 3 5 5 4 5 5 4 4 4 4 4 5 5 4 5 5 6 6 7 8 8 8
8 8 8 8 8 6 7 6 5 4 4 3 3 3 3 3 3 2 3 4 5 6 5 5 5 4 4 4 4 4 4 4 4 4 4 5 6 7 7 7 8 8
9 9 8 8 7 6 6 6 6 4 4 5 3 3 4 4 3 3 4 5 6 5 6 6 5 4 4 4 5 5 4 3 3 4 4 4 7 7 7 7 7 7
9 9 8 8 7 7 6 5 5 5 5 4 4 4 4 5 4 5 5 7 7 7 7 6 7 8 7 5 4 4 3 3 3 3 3 4 6 8 7 7 6 6
9 9 7 7 8 7 7 6 5 5 5 3 4 5 5 5 6 6 8 8 8 7 8 7 7 7 5 5 5 3 4 3 3 3 3 4 5 7 7 6 6 6
10 8 9 8 8 8 7 7 6 4 5 4 6 6 6 7 6 7 8 8 8 8 7 6 6 5 6 11 9 6 2 4 3 3 3 3 4 4 6 8 6 6
10 10 9 9 9 7 6 7 7 5 5 6 6 7 7 7 7 8 7 8 8 7 7 6 5 5 10 12 12 13 7 2 3 3 2 3 3 3 4 4 5 7
10 11 10 10 9 9 7 7 6 6 6 6 7 8 7 7 7 8 9 8 8 8 7 6 5 6 10 11 11 12 10 5 3 3 4 4 5 4 4 4 6 5
11 11 11 9 9 9 7 6 7 7 7 7 9 7 7 7 9 10 9 9 8 8 7 5 5 6 8 9 9 10 11 8 4 4 5 4 5 5 5 5 4 5
11 11 10 10 9 8 8 8 7 9 6 7 8 8 7 9 10 10 9 9 8 8 6 5 5 5 7 8 8 9 10 7 3 4 4 4 5 4 3 3 4 4
12 11 10 10 10 9 8 7 6 8 10 10 8 8 9 10 10 10 9 9 9 8 7 5 3 4 7 8 8 9 10 8 1 5 5 4 4 4 5 6 5 5
12 11 10 10 10 9 8 8 7 9 11 9 8 8 8 8 8 9 10 10 9 8 7 6 3 4 7 7 7 9 7 3 1 4 4 5 6 5 4 4 4 4
11 11 10 9 9 9 10 10 12 11 10 9 9 9 9 9 9 8 9 10 9 8 7 6 4 3 4 5 5 6 3 3 2 5 5 6 7 5 5 4 4 4
10 10 10 9 8 8 9 10 12 10 10 9 10 10 9 8 8 9 8 8 9 8 8 6 5 3 4 3 4 5 4 2 3 3 5 6 7 6 4 4 4 10
8 9 9 9 8 6 10 12 13 11 10 9 9 8 8 8 8 8 7 7 8 8 11 7 4 3 3 4 5 5 4 3 5 1 5 4 6 6 5 5 5 6
8 8 7 5 11 11 7 10 8 9 11 10 9 8 9 8 7 8 9 7 7 8 8 7 4 2 1 5 4 7 8 6 5 6 4 1 1 9 7 5 5 4
Wind_Direction
161 153 119 24 86 95 125 134 97 117 78 357 57 76 79 79 55 19 31 37 358 4 351 329 345 8 344 23 19 10 21 24 8 16 8 32 41 61 114 37 24 62
173 149 152 137 113 115 167 141 145 140 137 132 121 54 40 48 50 40 41 33 332 344 298 14 25 9 28 24 23 26 20 43 13 16 13 43 30 45 49 58 101 133
163 162 161 144 151 153 163 66 76 60 91 107 80 53 54 47 64 69 81 112 325 311 306 43 29 7 35 26 36 21 24 34 4 23 41 45 31 42 24 31 33 49
173 157 179 159 156 155 131 132 125 72 131 125 156 176 112 100 110 50 356 15 50 273 64 50 32 25 38 39 31 28 20 22 8 31 38 53 33 33 23 23 48 41
185 158 181 171 153 146 149 162 160 161 147 137 191 122 125 203 130 143 164 296 274 77 59 62 38 21 54 59 36 24 21 21 13 40 37 50 45 29 30 27 57 50
189 169 186 174 158 157 150 183 157 153 182 146 141 288 115 132 95 167 292 206 196 102 89 69 52 27 41 65 56 37 19 25 22 37 42 34 56 50 35 31 34 43
179 177 196 177 151 152 180 181 153 189 199 168 171 211 104 2 123 79 160 169 94 49 84 77 66 57 23 58 63 47 31 31 32 33 46 23 54 60 52 41 37 36
172 180 179 194 165 157 196 183 169 199 198 188 187 153 138 214 165 166 88 46 67 101 80 77 70 49 50 29 47 77 60 34 34 48 31 45 42 62 57 54 48 43
174 178 176 194 172 162 188 198 181 197 199 157 193 144 130 247 123 130 112 118 99 89 84 70 64 59 39 48 40 50 68 61 56 37 45 42 48 53 55 51 51 45
180 180 182 185 176 184 187 208 190 204 165 174 210 141 179 124 150 120 108 101 106 93 96 102 104 86 60 46 42 47 47 56 48 50 49 47 54 53 55 58 50 47
182 183 184 186 191 181 198 200 203 194 161 200 162 141 150 154 126 94 129 132 124 110 106 105 99 100 105 88 68 53 61 56 45 50 60 61 55 60 62 60 59 52
184 185 188 189 187 192 193 199 194 193 162 219 171 168 151 134 114 160 126 116 103 98 95 90 85 76 81 88 91 90 78 70 73 49 45 64 72 61 59 64 67 58
185 189 191 187 189 189 193 192 194 179 183 188 175 163 143 128 144 112 78 86 90 91 88 82 80 80 77 75 67 68 62 64 80 86 66 61 76 71 64 68 68 68
188 190 190 189 183 188 195 197 187 174 192 187 168 152 139 140 130 100 80 72 66 65 55 56 60 44 24 25 75 52 56 75 64 78 84 78 89 85 78 66 59 60
187 188 189 186 185 187 194 195 187 182 174 184 142 134 130 125 114 113 104 97 83 73 69 60 59 47 32 10 10 56 75 47 49 57 79 87 85 101 99 87 78 63
186 188 186 185 188 189 193 187 180 179 165 163 143 139 125 118 122 113 105 103 95 81 75 73 65 58 27 34 36 14 14 72 50 54 55 71 95 101 107 113 104 82
189 188 186 187 187 191 188 180 182 171 165 151 147 130 125 125 117 114 108 101 98 94 83 76 63 42 27 35 29 24 11 26 67 47 62 94 107 103 94 88 96 98
192 186 190 188 184 187 187 182 173 162 160 149 125 123 121 120 118 108 101 98 96 97 94 87 77 37 39 36 32 25 21 1 62 48 38 37 36 49 67 89 90 74
193 190 188 189 183 182 180 179 176 160 157 139 127 124 124 122 110 107 107 110 113 114 108 100 94 38 46 41 37 31 23 12 60 43 54 41 55 56 49 44 56 86
194 192 190 186 179 177 179 181 173 156 144 122 121 128 130 117 117 121 125 123 124 122 118 111 84 35 41 44 40 31 24 8 121 73 67 64 64 62 57 58 61 67
193 193 195 185 177 182 185 183 173 141 128 127 134 139 131 132 134 135 131 129 127 126 123 104 82 57 55 48 32 28 13 11 75 120 124 124 109 80 55 40 32 65
191 194 195 189 186 183 174 161 131 127 129 132 136 133 134 135 135 135 134 129 126 126 120 115 92 45 52 50 34 31 359 338 225 121 123 106 95 87 79 71 50 47
192 195 194 191 186 177 166 148 136 140 134 139 139 142 144 143 142 137 127 127 128 127 126 125 130 100 73 58 48 26 4 326 266 143 142 137 128 137 135 136 126 106
198 198 194 194 178 180 154 135 136 136 141 143 145 148 147 141 126 121 129 133 132 135 139 142 143 105 105 84 87 34 353 300 321 187 149 153 140 141 141 124 120 117
202 204 197 189 182 125 130 139 143 143 142 142 139 143 132 123 128 128 125 122 128 136 148 140 135 131 157 85 73 45 22 360 338 161 163 154 150 143 140 122 103 87
205 204 196 153 103 122 149 123 130 139 142 141 132 124 124 121 118 123 129 135 142 146 152 142 127 107 59 61 73 64 49 33 340 357 33 42 150 156 140 132 118 115